ATLAS 5 CENTAUR DEB, 46869

Orbit data source: Space-Track

ATLAS 5 CENTAUR DEB, 46869 is space debris in HEO originally from a launch on Wed, 17 Oct 2018 UTC launched from the Air Force Eastern Test Range (AFETR). Debris objects in space refer to the collection of defunct objects orbiting the Earth. Examples of debris include non-operational satellites, rocket bodies, and fragments generated from explosions, collisions, or faulty payload assembly.

Loading next visibility...
Identifier
46869, 2018-079EA
Orbit
HEO
Country
Flag of USUS
Related business
Flag of USUnited Launch Alliance/Lockheed Martin (US)
Manufacturer
ULA Decatur
Mission
Spacecraft
Bus & Motor
Unknown
Mass
Unknown
Launch date (UTC)
2018-10-17 (8 years ago)
Launch vehicle
Unknown
Launch site
Air Force Eastern Test Range (AFETR)
Object type
Payload
Rocket body
Debris
Shape & HBR
Unknown shape, 1.1 m
Radar Cross Section
RCS unknown

Expand to show TLE details & history
Last TLE update: 1 month ago

TLE from 1 month ago
0 ATLAS 5 CENTAUR DEB
1 46869U 18079EA  26215.54138956 -.00000101  00000-0  00000-0 0  9998
2 46869  13.3523  29.4352 4663369 328.0316  10.5357  1.83277249 38507
Epoch: 2026-08-03T12:59Z
TLE epoch observation values (Epoch: 2026-08-03T12:59:36.057Z)
Latitude
-0.00004°
Longitude
-117.55172°
Altitude
9,442.56 km
Speed
6.021 km/s
True Right ascension
01h 57m 53s
True Declination
0° 00' 00"
Sunlit
Object was in daylight at epoch
Visualization orbit readout
Latitude
Unknown
Longitude
Unknown
Altitude
Unknown
Speed
Unknown
Apparent Right ascension
Unknown
Apparent Declination
Unknown
Sunlit
N/A
Visualization observer readout
Local Sidereal Time
17:12:59
Azimuth
Unknown
Elevation
Unknown
Doppler factor
Unknown
Orbital elements
Apogee altitude
34,983.284 km
Perigee altitude
8,675.064 km
Semi-major axis
28,207.311 km
Eccentricity
0.46634
Inclination
13.3523°
RAAN
29.4352°
Arg. of periapsis
328.0316°
True anomaly
31.66954°
Mean anomaly
10.5357°
Eccentric anomaly
19.41921°
Mean motion
0.45814 °/min
Orbital period
785.78 mins
BSTAR
0
Loading maneuver chart data...
Computing Atmospheric mass density...

Documentation

Showing up to 5 results
|